GW1766 Weather Reports


time (UTC)temp
C
wind
direction
speed
KPH
gust
KPH
rain 1hr
cm
rain 24hr
cm
rain mn
cm
humidity
%
barometer
mb
20260906184051 28 0 0.0 0.0 0.00 0.00 0.00 76 1017.5
20260906183552 28 0 0.0 0.0 0.00 0.00 0.00 78 1017.6
20260906183106 28 0 0.0 0.0 0.00 0.00 0.00 77 1017.7
20260906182554 28 0 0.0 0.0 0.00 0.00 0.00 77 1017.7
20260906182051 28 0 0.0 0.0 0.00 0.00 0.00 77 1017.6
20260906181604 27 0 0.0 0.0 0.00 0.00 0.00 79 1017.8
20260906181051 27 0 0.0 0.0 0.00 0.00 0.00 78 1017.8
20260906180551 27 0 0.0 0.0 0.00 0.00 0.00 81 1017.8
20260906180100 27 0 0.0 0.0 0.00 0.00 0.00 81 1017.6
20260906175551 27 0 0.0 0.0 0.00 0.00 0.00 82 1017.2
20260906175054 27 0 0.0 0.0 0.00 0.00 0.00 82 1017.2
20260906174552 27 0 0.0 0.0 0.00 0.00 0.00 82 1017.4
20260906174050 26 0 0.0 3.2 0.00 0.00 0.00 85 1017.4
20260906173551 26 0 0.0 3.2 0.00 0.00 0.00 85 1017.4
20260906173119 26 0 0.0 0.0 0.00 0.00 0.00 86 1017.4
20260906172552 26 0 0.0 0.0 0.00 0.00 0.00 85 1017.6
20260906172051 26 0 0.0 0.0 0.00 0.00 0.00 88 1017.7
20260906171601 26 0 0.0 0.0 0.00 0.00 0.00 88 1017.9
20260906171052 26 0 0.0 0.0 0.00 0.00 0.00 88 1018.0
20260906170551 26 0 0.0 3.2 0.00 0.00 0.00 89 1017.9
20260906170106 26 0 0.0 3.2 0.00 0.00 0.00 89 1017.9
20260906165551 26 0 0.0 0.0 0.00 0.00 0.00 89 1017.8
20260906165051 26 0 0.0 0.0 0.00 0.00 0.00 89 1017.7
20260906164600 26 0 0.0 1.6 0.00 0.00 0.00 89 1017.7
20260906164053 26 0 0.0 1.6 0.00 0.00 0.00 89 1017.8
20260906163552 26 0 0.0 4.8 0.00 0.00 0.00 89 1017.6
20260906163101 25 330 0.0 4.8 0.00 0.00 0.00 89 1017.5
20260906162554 25 0 0.0 1.6 0.00 0.00 0.00 90 1017.8
20260906162053 25 0 0.0 3.2 0.00 0.00 0.00 90 1017.9
20260906161601 25 0 0.0 3.2 0.00 0.00 0.00 90 1018.0
20260906161054 25 0 0.0 3.2 0.00 0.00 0.00 90 1018.2
20260906160554 25 0 0.0 1.6 0.00 0.00 0.00 90 1018.2
20260906160058 25 0 0.0 6.4 0.00 0.00 0.00 90 1018.2
20260906155553 25 0 0.0 6.4 0.00 0.00 0.00 91 1018.2
20260906155053 25 0 0.0 6.4 0.00 0.00 0.00 91 1018.4
20260906154604 25 360 0.0 4.8 0.00 0.00 0.00 91 1018.2
20260906154053 25 0 0.0 6.4 0.00 0.00 0.00 91 1018.2
20260906153553 25 360 0.0 8.0 0.00 0.00 0.00 91 1018.3
20260906153103 25 360 1.6 8.0 0.00 0.00 0.00 91 1018.2
20260906152554 25 360 0.0 3.2 0.00 0.00 0.00 91 1018.3
20260906152054 25 360 0.0 3.2 0.00 0.00 0.00 91 1017.7
20260906151601 25 0 0.0 3.2 0.00 0.00 0.00 91 1017.6
20260906151053 25 0 0.0 3.2 0.00 0.00 0.00 92 1017.5
20260906150553 25 0 0.0 0.0 0.00 0.00 0.00 92 1017.4
20260906150101 25 0 0.0 0.0 0.00 0.00 0.00 92 1017.5
20260906145553 25 0 0.0 0.0 0.00 0.00 0.00 92 1017.5
20260906145057 25 0 0.0 0.0 0.00 0.00 0.00 92 1017.6
20260906144602 25 0 0.0 0.0 0.00 0.00 0.00 92 1017.6
20260906144053 25 0 0.0 0.0 0.00 0.00 0.00 92 1017.7
20260906143553 25 0 0.0 0.0 0.00 0.00 0.00 92 1017.6
20260906143057 24 0 0.0 0.0 0.00 0.00 0.00 92 1017.5
20260906142553 24 0 0.0 0.0 0.00 0.00 0.00 92 1017.5
20260906142054 24 0 0.0 0.0 0.00 0.00 0.00 92 1017.6
20260906141600 24 0 0.0 0.0 0.00 0.00 0.00 92 1017.5
20260906141053 24 0 0.0 0.0 0.00 0.00 0.00 93 1017.5
20260906140553 24 0 0.0 0.0 0.00 0.00 0.00 93 1017.5
20260906135553 24 0 0.0 0.0 0.00 0.00 0.00 93 1017.8
20260906135052 24 0 0.0 1.6 0.00 0.00 0.00 93 1017.8
20260906134607 24 0 0.0 1.6 0.00 0.00 0.00 93 1017.9
20260906134053 23 85 0.0 3.2 0.00 0.00 0.00 93 1018.1
20260906133552 23 0 0.0 3.2 0.00 0.00 0.00 93 1018.1
20260906133119 23 0 0.0 3.2 0.00 0.00 0.00 93 1018.2
20260906132553 23 0 0.0 0.0 0.00 0.00 0.00 93 1018.0
20260906132052 23 0 0.0 0.0 0.00 0.00 0.00 93 1018.0
20260906131603 23 0 0.0 0.0 0.00 0.00 0.00 93 1017.9
20260906131052 23 0 0.0 0.0 0.00 0.00 0.00 93 1018.0
20260906130554 23 0 0.0 1.6 0.00 0.00 0.00 93 1017.8
20260906130112 23 0 0.0 3.2 0.00 0.00 0.00 93 1017.8
20260906125553 23 0 0.0 3.2 0.00 0.00 0.00 93 1017.8
20260906125052 23 88 0.0 3.2 0.00 0.00 0.00 93 1017.6
20260906124555 23 0 0.0 3.2 0.00 0.00 0.00 93 1017.6
20260906124053 23 0 0.0 3.2 0.00 0.00 0.00 93 1017.5
20260906123553 23 0 0.0 0.0 0.00 0.00 0.00 93 1017.5
20260906123104 23 0 0.0 0.0 0.00 0.00 0.00 93 1017.6
20260906122556 23 0 0.0 0.0 0.00 0.00 0.00 93 1017.6
20260906122053 23 0 0.0 0.0 0.00 0.00 0.00 93 1017.5
20260906121604 23 0 0.0 0.0 0.00 0.00 0.00 93 1017.4
20260906121052 23 0 0.0 0.0 0.00 0.00 0.00 93 1017.3
20260906120554 23 0 0.0 0.0 0.00 0.00 0.00 93 1017.3
20260906115553 23 0 0.0 0.0 0.00 0.00 0.00 93 1017.1
20260906115051 23 0 0.0 0.0 0.00 0.00 0.00 93 1017.1
20260906114554 23 0 0.0 0.0 0.00 0.00 0.00 93 1017.0
20260906114055 23 0 0.0 0.0 0.00 0.00 0.00 93 1017.0
20260906113552 23 0 0.0 0.0 0.00 0.00 0.00 93 1016.9
20260906113103 23 0 0.0 0.0 0.00 0.00 0.00 93 1017.0
20260906112552 23 0 0.0 0.0 0.00 0.00 0.00 93 1017.0
20260906112053 23 0 0.0 0.0 0.00 0.00 0.00 93 1017.0
20260906111559 23 0 0.0 0.0 0.00 0.00 0.00 93 1016.9
20260906111056 23 0 0.0 0.0 0.00 0.00 0.00 93 1016.9
20260906110552 23 0 0.0 0.0 0.00 0.00 0.00 93 1016.8
20260906105552 23 0 0.0 0.0 0.00 0.00 0.00 93 1016.7
20260906105053 23 0 0.0 0.0 0.00 0.00 0.00 93 1016.7
20260906104557 23 0 0.0 0.0 0.00 0.00 0.00 93 1016.7
20260906104053 23 0 0.0 0.0 0.00 0.00 0.00 93 1016.7
20260906103552 23 0 0.0 0.0 0.00 0.00 0.00 93 1016.6
20260906103101 23 0 0.0 0.0 0.00 0.00 0.00 93 1016.8
20260906102552 23 0 0.0 0.0 0.00 0.00 0.00 93 1016.7
20260906102052 23 0 0.0 0.0 0.00 0.00 0.00 93 1016.7
20260906101606 23 0 0.0 0.0 0.00 0.00 0.00 92 1016.6
20260906101054 23 0 0.0 0.0 0.00 0.00 0.00 92 1016.5
20260906100557 23 0 0.0 0.0 0.00 0.00 0.00 92 1016.5
20260906100103 24 0 0.0 0.0 0.00 0.00 0.00 92 1016.4
20260906095552 24 0 0.0 0.0 0.00 0.00 0.00 92 1016.4
20260906095053 24 0 0.0 0.0 0.00 0.00 0.00 92 1016.4
20260906094610 24 0 0.0 0.0 0.00 0.00 0.00 92 1016.4
20260906094053 24 0 0.0 0.0 0.00 0.00 0.00 92 1016.4
20260906093553 24 0 0.0 0.0 0.00 0.00 0.00 92 1016.5
20260906093118 24 0 0.0 0.0 0.00 0.00 0.00 92 1016.6
20260906092555 24 0 0.0 0.0 0.00 0.00 0.00 92 1016.7
20260906092053 24 0 0.0 0.0 0.00 0.00 0.00 92 1016.7
20260906091601 24 0 0.0 0.0 0.00 0.00 0.00 92 1016.8
20260906091054 24 0 0.0 0.0 0.00 0.00 0.00 92 1016.9
20260906090553 24 0 0.0 0.0 0.00 0.00 0.00 92 1017.0
20260906090138 24 0 0.0 0.0 0.00 0.00 0.00 92 1016.8
20260906085556 24 0 0.0 0.0 0.00 0.00 0.00 92 1016.7
20260906085052 24 0 0.0 0.0 0.00 0.00 0.00 92 1016.7
20260906084627 24 0 0.0 0.0 0.00 0.00 0.00 92 1016.7
20260906084051 24 0 0.0 0.0 0.00 0.00 0.00 91 1016.7
20260906083553 24 0 0.0 0.0 0.00 0.00 0.00 91 1016.6
20260906083103 24 0 0.0 0.0 0.00 0.00 0.00 91 1016.6
20260906082551 24 0 0.0 0.0 0.00 0.00 0.00 91 1016.6
20260906082053 24 0 0.0 0.0 0.00 0.00 0.00 91 1016.6
20260906081603 24 0 0.0 0.0 0.00 0.00 0.00 91 1016.6
20260906081052 25 0 0.0 0.0 0.00 0.00 0.00 91 1016.4
20260906080553 25 0 0.0 0.0 0.00 0.00 0.00 91 1016.4
20260906080110 25 0 0.0 0.0 0.00 0.00 0.00 91 1016.3
20260906075552 25 0 0.0 3.2 0.00 0.00 0.00 91 1016.4
20260906075052 25 0 0.0 4.8 0.00 0.00 0.00 91 1016.4
20260906074605 25 0 1.6 4.8 0.00 0.00 0.00 91 1016.5
20260906074052 25 0 0.0 3.2 0.00 0.00 0.00 91 1016.5
20260906073552 25 0 0.0 3.2 0.00 0.00 0.00 91 1016.5
20260906073101 25 0 1.6 3.2 0.00 0.00 0.00 91 1016.3
20260906072554 25 0 0.0 0.0 0.00 0.00 0.00 90 1016.5
20260906072053 25 0 0.0 3.2 0.00 0.00 0.00 90 1016.5
20260906071603 25 0 0.0 4.8 0.00 0.00 0.00 90 1016.5
20260906071053 25 93 0.0 4.8 0.00 0.00 0.00 90 1016.5
20260906070556 25 0 0.0 3.2 0.00 0.00 0.00 90 1016.5
20260906065552 25 0 0.0 3.2 0.00 0.00 0.00 90 1016.6
20260906065053 25 93 0.0 3.2 0.00 0.00 0.00 90 1016.6
20260906064559 25 0 0.0 4.8 0.00 0.00 0.00 90 1016.6
20260906064052 25 107 1.6 4.8 0.00 0.00 0.00 90 1016.6
20260906063553 25 0 0.0 3.2 0.00 0.00 0.00 90 1016.6
20260906063104 25 0 0.0 3.2 0.00 0.00 0.00 90 1016.8
20260906062551 25 67 0.0 3.2 0.00 0.00 0.00 90 1016.8
20260906062052 25 0 0.0 4.8 0.00 0.00 0.00 90 1016.9
20260906061607 25 0 0.0 4.8 0.00 0.00 0.00 90 1016.7
20260906061052 25 0 0.0 3.2 0.00 0.00 0.00 90 1016.7
20260906060556 25 0 0.0 3.2 0.00 0.00 0.00 90 1016.7
20260906060103 25 81 0.0 3.2 0.00 0.00 0.00 90 1016.7
20260906055553 25 60 0.0 3.2 0.00 0.00 0.00 90 1016.8
20260906055055 25 0 0.0 3.2 0.00 0.00 0.00 90 1016.6
20260906054605 25 0 0.0 3.2 0.00 0.00 0.00 90 1016.6
20260906054054 25 96 0.0 3.2 0.00 0.00 0.00 90 1016.7
20260906053552 25 0 0.0 3.2 0.00 0.00 0.00 90 1016.7
20260906053119 25 0 0.0 3.2 0.00 0.00 0.00 90 1016.7
20260906052552 25 0 0.0 3.2 0.00 0.00 0.00 90 1016.6
20260906052052 25 0 0.0 3.2 0.00 0.00 0.00 90 1016.6
20260906051600 25 99 1.6 3.2 0.00 0.00 0.00 90 1016.6
20260906051055 25 89 0.0 3.2 0.00 0.00 0.00 89 1016.6
20260906050555 25 0 0.0 0.0 0.00 0.00 0.00 89 1016.7
20260906050059 25 0 0.0 3.2 0.00 0.00 0.00 89 1016.6
20260906045553 25 0 0.0 3.2 0.00 0.00 0.00 89 1016.7
20260906045053 25 0 0.0 3.2 0.00 0.00 0.00 89 1016.6
20260906044621 25 0 0.0 3.2 0.00 0.00 0.00 89 1016.6
20260906044052 25 69 0.0 3.2 0.00 0.00 0.00 89 1016.6
20260906043552 25 69 0.0 3.2 0.00 0.00 0.00 89 1016.7
20260906043103 26 69 0.0 3.2 0.00 0.00 0.00 89 1016.7
20260906042552 26 0 0.0 3.2 0.00 0.00 0.00 89 1016.8
20260906042052 26 0 0.0 3.2 0.00 0.00 0.00 89 1016.7
20260906041601 26 0 0.0 3.2 0.00 0.00 0.00 89 1016.9
20260906041051 26 0 0.0 3.2 0.00 0.00 0.00 89 1016.8
20260906040551 26 86 0.0 4.8 0.00 0.00 0.00 89 1016.7
20260906040105 26 0 0.0 4.8 0.00 0.00 0.00 89 1016.7
20260906035558 26 113 0.0 3.2 0.00 0.00 0.00 89 1016.8
20260906035052 26 0 0.0 3.2 0.00 0.00 0.00 89 1016.8
20260906034600 26 95 0.0 3.2 0.00 0.00 0.00 88 1017.0
20260906034054 26 0 0.0 0.0 0.00 0.00 0.00 88 1016.9
20260906033554 26 0 0.0 0.0 0.00 0.00 0.00 88 1016.8
20260906033109 26 0 0.0 0.0 0.00 0.00 0.00 88 1016.7
20260906032551 26 0 0.0 0.0 0.00 0.00 0.00 88 1016.6
20260906032053 26 0 0.0 0.0 0.00 0.00 0.00 88 1016.7
20260906031605 26 0 0.0 0.0 0.00 0.00 0.00 88 1016.7
20260906031052 26 0 0.0 3.2 0.00 0.00 0.00 87 1016.6
20260906030553 26 0 0.0 3.2 0.00 0.00 0.00 87 1016.5
20260906030101 26 80 0.0 3.2 0.00 0.00 0.00 87 1016.6
20260906025552 26 86 0.0 1.6 0.00 0.00 0.00 87 1016.5
20260906025052 26 0 0.0 0.0 0.00 0.00 0.00 87 1016.5
20260906024623 26 0 0.0 0.0 0.00 0.00 0.00 86 1016.5
20260906024055 26 0 0.0 0.0 0.00 0.00 0.00 86 1016.4
20260906023553 26 0 0.0 0.0 0.00 0.00 0.00 86 1016.4
20260906023106 26 0 0.0 0.0 0.00 0.00 0.00 86 1016.3
20260906022551 26 0 0.0 0.0 0.00 0.00 0.00 86 1016.3
20260906022052 26 0 0.0 1.6 0.00 0.00 0.00 85 1016.2
20260906021602 26 0 0.0 1.6 0.00 0.00 0.00 85 1016.1
20260906021051 26 0 0.0 0.0 0.00 0.00 0.00 85 1016.0
20260906020551 26 0 0.0 0.0 0.00 0.00 0.00 85 1016.0
20260906020108 26 0 0.0 0.0 0.00 0.00 0.00 85 1016.0
20260906015552 27 0 0.0 0.0 0.00 0.00 0.00 84 1015.9
20260906015052 27 0 0.0 3.2 0.00 0.00 0.00 84 1015.8
20260906014605 27 0 0.0 3.2 0.00 0.00 0.00 84 1015.9
20260906014052 27 0 0.0 1.6 0.00 0.00 0.00 84 1015.9
20260906013552 27 87 0.0 3.2 0.00 0.00 0.00 83 1015.6
20260906013109 27 0 0.0 3.2 0.00 0.00 0.00 83 1015.7
20260906012554 27 87 0.0 3.2 0.00 0.00 0.00 83 1015.7
20260906012051 27 0 0.0 3.2 0.00 0.00 0.00 83 1015.6
20260906011604 27 87 0.0 3.2 0.00 0.00 0.00 82 1015.7
20260906011119 27 0 0.0 3.2 0.00 0.00 0.00 82 1015.7
20260906010554 27 0 0.0 3.2 0.00 0.00 0.00 82 1015.6
20260906010131 27 0 0.0 3.2 0.00 0.00 0.00 82 1015.6
20260906005555 27 86 0.0 1.6 0.00 0.00 0.00 81 1015.5
20260906005054 28 0 0.0 3.2 0.00 0.00 0.00 81 1015.5
20260906004601 28 0 0.0 3.2 0.00 0.00 0.00 81 1015.4
20260906004053 28 86 0.0 1.6 0.00 0.00 0.00 81 1015.4
20260906003555 28 0 0.0 3.2 0.00 0.00 0.00 80 1015.3
20260906003101 28 0 0.0 3.2 0.00 0.00 0.00 80 1015.3
20260906002553 28 0 0.0 3.2 0.00 0.00 0.00 80 1015.2
20260906002055 28 86 0.0 3.2 0.00 0.00 0.00 79 1015.2
20260906001606 28 0 0.0 3.2 0.00 0.00 0.00 79 1015.2
20260906001054 28 0 0.0 3.2 0.00 0.00 0.00 78 1015.2
20260906000554 29 87 1.6 3.2 0.00 0.00 0.00 77 1015.2
20260906000101 29 87 1.6 3.2 0.00 0.00 0.00 76 1015.3
20260905235556 29 0 0.0 3.2 0.00 0.00 0.00 75 1015.2
20260905235054 29 87 0.0 3.2 0.00 0.00 0.00 74 1015.3
20260905234600 30 88 0.0 3.2 0.00 0.00 0.00 73 1015.4
20260905234053 30 0 0.0 4.8 0.00 0.00 0.00 72 1015.3
20260905233554 30 0 0.0 4.8 0.00 0.00 0.00 71 1015.3
20260905233102 30 105 0.0 4.8 0.00 0.00 0.00 71 1015.2
20260905232558 30 64 0.0 4.8 0.00 0.00 0.00 71 1015.2
20260905232053 30 90 0.0 3.2 0.00 0.00 0.00 71 1015.1
20260905231559 30 0 0.0 4.8 0.00 0.00 0.00 71 1014.8
20260905231053 30 0 0.0 4.8 0.00 0.00 0.00 70 1014.9
20260905230557 30 360 1.6 4.8 0.00 0.00 0.00 69 1014.8
20260905230123 30 76 0.0 4.8 0.00 0.00 0.00 68 1014.9
20260905225553 30 360 0.0 6.4 0.00 0.00 0.00 68 1014.8
20260905225054 30 360 1.6 6.4 0.00 0.00 0.00 68 1014.8
20260905224603 31 71 1.6 6.4 0.00 0.00 0.00 67 1014.7
20260905224054 31 98 1.6 6.4 0.00 0.00 0.00 66 1014.7
20260905223553 31 80 1.6 4.8 0.00 0.00 0.00 66 1014.9
20260905223100 31 360 0.0 4.8 0.00 0.00 0.00 66 1014.9
20260905222554 31 96 0.0 4.8 0.00 0.00 0.00 66 1014.9
20260905222053 31 32 1.6 4.8 0.00 0.00 0.00 66 1014.9
20260905221557 31 360 1.6 4.8 0.00 0.00 0.00 66 1014.8
20260905221054 31 104 0.0 4.8 0.00 0.00 0.00 66 1014.7
20260905220553 31 91 1.6 4.8 0.00 0.00 0.00 66 1014.7
20260905220105 31 102 0.0 6.4 0.00 0.00 0.00 67 1014.7
20260905215557 31 360 1.6 6.4 0.00 0.00 0.00 66 1014.7
20260905215053 31 360 1.6 6.4 0.00 0.00 0.00 65 1014.7
20260905214602 31 0 0.0 6.4 0.00 0.00 0.00 65 1014.7
20260905214053 31 0 1.6 6.4 0.00 0.00 0.00 64 1014.7
20260905213553 31 116 0.0 3.2 0.00 0.00 0.00 65 1014.6
20260905213107 31 0 0.0 4.8 0.00 0.00 0.00 66 1014.7
20260905212553 30 101 0.0 4.8 0.00 0.00 0.00 65 1014.7
20260905212054 30 111 0.0 4.8 0.00 0.00 0.00 65 1014.6
20260905211603 30 93 1.6 4.8 0.00 0.00 0.00 65 1014.6
20260905211056 30 59 0.0 6.4 0.00 0.00 0.00 65 1014.6
20260905210556 30 156 1.6 6.4 0.00 0.00 0.00 65 1014.6
20260905210105 30 0 1.6 6.4 0.00 0.00 0.00 64 1014.7
20260905205555 30 151 0.0 6.4 0.00 0.00 0.00 65 1014.7
20260905205057 30 58 1.6 6.4 0.00 0.00 0.00 66 1014.8
20260905204612 29 92 1.6 6.4 0.00 0.00 0.00 68 1014.9
20260905204057 29 0 0.0 4.8 0.00 0.00 0.00 69 1014.9
20260905203553 29 0 0.0 4.8 0.00 0.00 0.00 70 1014.9
20260905203104 28 360 0.0 4.8 0.00 0.00 0.00 67 1014.7
20260905202553 28 0 0.0 6.4 0.00 0.00 0.00 67 1014.6
20260905202053 28 223 1.6 6.4 0.00 0.00 0.00 67 1014.6
20260905201610 28 0 1.6 6.4 0.00 0.00 0.00 69 1014.5
20260905201054 28 360 0.0 6.4 0.00 0.00 0.00 68 1014.6
20260905200553 28 0 0.0 4.8 0.00 0.00 0.00 66 1014.4
20260905195557 28 146 3.2 9.7 0.00 0.00 0.00 67 1013.8
20260905195053 28 208 0.0 8.0 0.00 0.00 0.00 68 1014.4
20260905194558 28 0 1.6 8.0 0.00 0.00 0.00 67 1014.4
20260905194053 28 109 1.6 4.8 0.00 0.00 0.00 67 1014.7
20260905193554 28 106 0.0 3.2 0.00 0.00 0.00 70 1015.1
20260905193104 28 94 0.0 3.2 0.00 0.00 0.00 69 1015.2
20260905192553 28 0 0.0 3.2 0.00 0.00 0.00 68 1015.3
20260905192053 28 0 0.0 4.8 0.00 0.00 0.00 69 1015.4
20260905191602 28 0 0.0 4.8 0.00 0.00 0.00 69 1015.3
20260905191053 28 0 1.6 4.8 0.00 0.00 0.00 69 1015.4
20260905190553 27 157 0.0 3.2 0.00 0.00 0.00 70 1015.4
20260905190103 27 0 0.0 3.2 0.00 0.00 0.00 71 1015.6
20260905185553 27 0 0.0 1.6 0.00 0.00 0.00 72 1015.6
20260905185056 27 87 0.0 3.2 0.00 0.00 0.00 75 1015.5
20260905184612 27 0 0.0 4.8 0.00 0.00 0.00 75 1015.8